Location: Skalnate Pleso
(49.1889°N, 20.2450°E)
Time: 09:59:13
(UTC+01:00)

Exosat Rocket - Pass Details

Date: 19 November 2019
Orbit: 761 x 2513 km, 72.3° (Epoch: 11 December)

Event Time Altitude Azimuth Distance (km) Brightness Sun altitude
Exits shadow 05:33:05 - 335° (NNW) 2,868 6.1 -13.2°
Reaches altitude 10° 05:34:12 10° 336° (NNW) 2,429 5.7 -13.0°
Maximum altitude 05:39:36 80° 63° (ENE) 979 4.1 -12.1°
Drops below altitude 10° 05:46:47 10° 151° (SSE) 3,191 7.4 -11.0°
Sets 05:50:00 0° 153° (SSE) 4,411 8.1 -10.5°
